Home   Weather   Steffisburg   Past weeks

Flag for Switzerland Past Weather in Steffisburg, Bern, Switzerland — Yesterday and Last 2 Weeks

54 °F


Feels Like: 53 °F
Forecast: 38 / 59 °F
Wind: 3 mph from North

Location: Bern / Belp

Current Time: Oct 28, 2016 at 2:10:16 PM

Latest Report: Oct 28, 2016 at 1:20 PM

Visibility: 10 mi

Pressure: 30.54 "Hg (28.48 "Hg at 582m altitude)

Humidity: 77%

Dew Point: 46 °F

Location of SteffisburgLocation

Past Weather in Steffisburg — Graph


Steffisburg Temperature Yesterday

Maximum temperature yesterday: 57 °F (at 2:50 PM)
Minimum temperature yesterday: 39 °F (at 10:50 PM)
Average temperature yesterday: 49 °F

High & Low Weather Summary for the Past Weeks

High64 °F (Oct 24, 3:20 PM)100% (Oct 13, 11:50 PM)30.54 "Hg (Oct 13, 11:50 PM)
Low32 °F (Oct 22, 3:50 AM)51% (Oct 20, 4:20 PM)29.62 "Hg (Oct 14, 5:20 PM)
Average47 °F91%30.09 "Hg
* Reported Oct 13 12:20 PM — Oct 28 12:50 PM, Steffisburg, Weather by CustomWeather, © 2016

Note: Actual official high and low records may vary slightly from our data, if they occured in-between our weather recording intervals... More about our weather records


Steffisburg Weather History for the Previous 24 Hours

Scroll right to see more
Time TempWeatherWind HumidityBarometerVisibility
12:50 PM
Fri, Oct 28
52 °FPassing clouds.2 mph77%30.54 "HgN/A
12:20 PM50 °FPassing clouds.1 mph82%30.54 "HgN/A
11:50 AM46 °FPassing clouds.1 mph100%30.54 "HgN/A
11:20 AM43 °FScattered clouds.2 mph100%30.54 "HgN/A
10:50 AM41 °FLight fog.2 mph100%30.54 "Hg1 mi
10:20 AM37 °FFog.1 mph100%30.54 "Hg0 mi
9:50 AM37 °FFog.1 mph100%30.54 "Hg0 mi
9:20 AM36 °FFog.2 mph100%30.54 "Hg0 mi
8:50 AM36 °FFog.No wind100%30.54 "Hg0 mi
8:20 AM36 °FFog.3 mph100%30.54 "Hg0 mi
7:50 AM36 °FFog.2 mph100%30.54 "Hg0 mi
7:20 AM37 °FFog.2 mph100%30.51 "Hg0 mi
6:50 AM37 °FFog.3 mph100%30.51 "Hg0 mi
6:20 AM37 °FFog.3 mph100%30.54 "Hg0 mi
5:50 AM37 °FFog.2 mph100%30.51 "Hg0 mi
5:20 AM37 °FFog.3 mph100%30.51 "Hg0 mi
4:50 AM37 °FFog.3 mph100%30.54 "Hg0 mi
4:20 AM37 °FFog.1 mph100%30.51 "Hg0 mi
3:50 AM37 °FFog.2 mph100%30.51 "Hg0 mi
3:20 AM37 °FFog.5 mph100%30.51 "Hg0 mi
2:50 AM37 °FFog.3 mph100%30.51 "Hg0 mi
2:20 AM37 °FFog.1 mph100%30.51 "Hg0 mi
1:50 AM37 °FFog.No wind100%30.51 "Hg0 mi
1:20 AM37 °FLight fog.1 mph100%30.51 "Hg1 mi
12:50 AM37 °FFog.1 mph100%30.51 "Hg1 mi
12:20 AM39 °FFog.1 mph100%30.51 "Hg1 mi
11:50 PM
Thu, Oct 27
39 °FFog.1 mph93%30.51 "Hg2 mi
11:20 PM39 °FFog.1 mph93%30.51 "Hg2 mi
10:50 PM39 °FFog.2 mph100%30.51 "HgN/A
10:20 PM41 °FFog.1 mph100%30.51 "Hg4 mi
9:50 PM41 °FFog.1 mph100%30.51 "Hg2 mi
9:20 PM43 °FFog.1 mph100%30.51 "Hg4 mi
8:50 PM43 °FClear.1 mph100%30.51 "Hg4 mi
8:20 PM46 °FClear.1 mph93%30.51 "Hg10 mi
7:50 PM46 °FClear.1 mph93%30.51 "Hg10 mi
7:20 PM48 °FClear.2 mph82%30.48 "Hg10 mi
6:50 PM50 °FClear.3 mph82%30.48 "Hg10 mi
6:20 PM52 °FPassing clouds.3 mph77%30.48 "HgN/A
5:50 PM54 °FPassing clouds.5 mph72%30.48 "HgN/A
5:20 PM55 °FPassing clouds.6 mph72%30.48 "HgN/A
4:50 PM55 °FPassing clouds.8 mph67%30.48 "HgN/A
4:20 PM57 °FPassing clouds.6 mph67%30.48 "HgN/A
3:50 PM57 °FScattered clouds.7 mph67%30.45 "HgN/A
3:20 PM57 °FPassing clouds.5 mph67%30.45 "HgN/A
2:50 PM57 °FScattered clouds.6 mph67%30.45 "HgN/A
2:20 PM55 °FPassing clouds.3 mph72%30.48 "HgN/A
Weather by CustomWeather, © 2016

See weather overviewHow to use our weather pages